Retour au catalogue

STARLINK-35588

ActifCommunicationsVLEO
NORAD 66424·PAYLOAD·🇺🇸 United States

Lancé Nov 11, 2025 depuis Cape Canaveral Space Force Station

Loading…

Prochains Passages (prochaines 24 heures)

TLE

FraisSource: CelesTrak SupGP

Époque: Sep 14, 2026, 23:07 UTC

1 66424C 25259C   26257.96368056  .00028944  00000+0  10485-2 0  2573
2 66424  43.0024 285.5364 0001618 270.8912 214.3017 15.27559804    10

Suivez STARLINK-35588 en temps réel avec AllMySat

Download on the App Store